This demonstration page uses our WeatherBlox Daily Observations layout. Learn more.

Left ArrowRight Arrow

Hourly Observations for July 1, 2021

Temp ( °F °C ) Dew Point ( °F °C ) Humidity (%) Winds ( mph kmh ) Pressure ( in mb ) Visibility ( mi km ) Precip ( " mm )
12:53 am 00:53 Clear 84 28.9 58 14.4 41 41 WSW 5 7 29.76 1008 10 16 0.00 0.00
1:53 am 01:53 Clear 81 27.2 58 14.4 45 45 Calm 29.76 1008 10 16 0.00 0.00
2:53 am 02:53 Clear 78 25.6 58 14.4 50 50 Calm 29.76 1008 10 16 0.00 0.00
3:53 am 03:53 Clear 76 24.4 57 13.9 52 52 Calm 29.77 1008 10 16 0.00 0.00
4:53 am 04:53 Clear 74 23.3 57 13.9 56 56 SSE 5 7 29.78 1009 10 16 0.00 0.00
5:53 am 05:53 Sunny 74 23.3 57 13.9 56 56 S 7 11 29.80 1009 10 16 0.00 0.00
6:53 am 06:53 Sunny 74 23.3 58 14.4 57 57 SSW 7 11 29.82 1010 10 16 0.00 0.00
7:53 am 07:53 Sunny 75 23.9 57 13.9 54 54 S 6 9 29.83 1010 10 16 0.00 0.00
8:53 am 08:53 Sunny 78 25.6 58 14.4 50 50 SW 6 9 29.84 1011 10 16 0.00 0.00
9:53 am 09:53 Sunny 82 27.8 58 14.4 44 44 SSW 5 7 29.83 1010 10 16 0.00 0.00
10:53 am 10:53 Sunny 86 30 58 14.4 39 39 S 6 9 29.82 1010 10 16 0.00 0.00
11:53 am 11:53 Sunny 90 32.2 57 13.9 33 33 VRB 3 6 29.81 1009 10 16 0.00 0.00
12:53 pm 12:53 Sunny 93 33.9 58 14.4 31 31 undefined N/A 29.78 1009 10 16 0.00 0.00
1:53 pm 13:53 Sunny 96 35.6 57 13.9 27 27 SE 10 17 29.77 1008 10 16 0.00 0.00
2:53 pm 14:53 Sunny 98 36.7 53 11.7 22 22 SSE 13 20 29.76 1008 10 16 0.00 0.00
3:53 pm 15:53 Sunny 98 36.7 54 12.2 23 23 S 13 20 29.75 1007 10 16 0.00 0.00
4:53 pm 16:53 Sunny 98 36.7 54 12.2 23 23 SSW 12 19 29.73 1007 10 16 0.00 0.00
5:53 pm 17:53 Sunny 98 36.7 54 12.2 23 23 S 13 20 29.72 1006 10 16 0.00 0.00
6:53 pm 18:53 Sunny 97 36.1 54 12.2 24 24 S 13 20 29.72 1006 10 16 0.00 0.00
7:53 pm 19:53 Sunny 95 35 52 11.1 23 23 S 13 20 29.73 1007 10 16 0.00 0.00
8:53 pm 20:53 Clear 91 32.8 54 12.2 28 28 S 13 20 29.75 1007 10 16 0.00 0.00
9:53 pm 21:53 Clear 85 29.4 60 15.6 43 43 ESE 6 9 29.77 1008 10 16 0.00 0.00
10:53 pm 22:53 Clear 84 28.9 63 17.2 49 49 ESE 5 7 29.79 1009 10 16 0.00 0.00
11:53 pm 23:53 Clear 83 28.3 62 16.7 49 49 Calm 29.80 1009 10 16 0.00 0.00

Powered by AerisWeather